Regional Weather Roundup
Issued by NWS Charleston, WV

Home | Current Version | Previous Version | Graphics & Text | Print | Product List | Glossary On
Versions: 1 2 3 4 5 6 7 8 9 10 11 12 13 14 15 16 17 18 19 20 21 22 23 24 25 26 27 28 29 30 31 32 33 34 35 36 37 38 39 40 41 42 43 44 45 46 47 48 49 50
000
ASUS41 KRLX 021410
RWRRLX
West Virginia Regional Weather Roundup
National Weather Service Charleston WV
900 AM EST MON MAR 02 2015

Note: "fair" indicates few or no clouds below 12,000 feet with no
significant weather and/or obstructions to visibility.

WVZ003-021500-
Northern Panhandle of West Virginia

CITY           SKY/WX    TMP DP  RH WIND       PRES   REMARKS
WHEELING       MOSUNNY   24  16  71 W12       30.40R
$$

WVZ009-021500-
Northwest West Virginia

CITY           SKY/WX    TMP DP  RH WIND       PRES   REMARKS
PARKERSBURG    MOSUNNY   26  15  63 NW9       30.50R
$$

WVZ006-021500-
Western West Virginia

CITY           SKY/WX    TMP DP  RH WIND       PRES   REMARKS
HUNTINGTON     PTSUNNY   30  22  72 N7        30.49R
$$

WVZ015-021500-
West Central West Virginia

CITY           SKY/WX    TMP DP  RH WIND       PRES   REMARKS
CHARLESTON     PTSUNNY   32  24  72 NW9       30.46R
$$

WVZ022-031-021500-
North Central West Virginia

CITY           SKY/WX    TMP DP  RH WIND       PRES   REMARKS
CLARKSBURG     PTSUNNY   30  23  75 NW12      30.41R
MORGANTOWN     CLOUDY    28  17  63 VRB7      30.41R
$$

WVZ025-035-042-045-021500-
Southern West Virginia

CITY           SKY/WX    TMP DP  RH WIND       PRES   REMARKS
BECKLEY        MIX PCPN  30  26  85 NW14      30.35R FOG
LOGAN          CLOUDY    30  28  93 CALM      30.40R
BLUEFIELD      LGT SNOW  34  30  85 NW13G22   30.32R FOG
LEWISBURG      CLOUDY    33  29  83 NW9G16    30.33R FOG
$$

WVZ047-021500-
Northern Mountains of West Virginia

CITY           SKY/WX    TMP DP  RH WIND       PRES   REMARKS
ELKINS         CLOUDY    30  24  78 W10       30.35R
$$

WVZ052-021500-
Eastern Panhandle of West Virginia

CITY           SKY/WX    TMP DP  RH WIND       PRES   REMARKS
MARTINSBURG    PTSUNNY   39  23  52 NW18G30   30.25R
PETERSBURG     MOSUNNY   39  21  48 N7G24     30.29R
$$


USA.gov is the U.S. government's official web portal to all federal, state and local government web resources and services.